Tracking 33208 objects as of 14-Feb-2026
HD Live streaming from Space Station
objects crossing your sky now

THOR BURNER 2 R/B

Track THOR BURNER 2 R/B now!
10-day predictions


NORAD ID: 7817
Int'l Code: 1975-043B
Perigee: 794.1 km
Apogee: 872.3 km
Inclination: 98.7 °
Period: 101.4 minutes
Semi major axis: 7204 km
RCS: Unknown
Launch date: May 24, 1975
Source: United States (US)
Launch site: AIR FORCE WESTERN TEST RANGE (AFWTR)

Note: This is a ROCKET BODY
Your satellite tracking list
Your tracking list is empty




NASA's NSSDC Master Catalog

Two Line Element Set (TLE):
1  7817U 75043B   26045.47939696  .00000112  00000-0  72061-4 0  9996
2  7817  98.6868 253.3818 0054246 104.4623 256.2581 14.19798915345983
Source of the keplerian elements: AFSPC